Total_Precipitation_Accumulation
2.86 2.75 3.18 4.14 4.79 4.30 3.80 3.06 2.60 2.41 2.03 1.60 1.23 1.21 1.51 1.97 2.51 3.00 3.32 3.10 2.15 1.70 1.80 2.65 3.36 3.03 2.52 2.16 2.00 2.04 2.03 2.15 2.12 2.12 1.92 1.77 1.63 1.56 1.40 1.23 1.29 1.26 1.13 1.05 1.04 1.18 1.25 1.24 1.38
2.17 2.97 3.80 4.77 4.44 3.78 3.54 3.10 2.81 2.28 1.64 1.30 0.96 0.88 0.99 1.09 1.16 1.85 3.12 2.98 1.89 1.55 1.63 1.98 2.76 2.64 2.21 2.00 1.99 2.11 2.14 2.27 2.20 2.07 1.87 1.72 1.69 1.61 1.46 1.36 1.43 1.27 1.17 1.07 1.06 1.19 1.33 1.27 1.36
2.22 3.35 4.37 4.64 3.55 3.28 3.43 3.20 2.61 1.89 1.33 1.21 1.01 0.88 1.10 1.42 1.50 2.12 2.89 2.24 1.62 1.50 1.60 2.15 2.74 2.47 2.15 1.96 2.13 2.35 2.37 2.34 2.17 1.94 1.74 1.71 1.73 1.67 1.59 1.57 1.52 1.26 1.17 1.08 1.07 1.17 1.21 1.19 1.23
2.57 3.75 4.01 3.73 3.11 2.72 2.86 2.82 2.21 1.75 1.31 0.92 0.90 0.95 1.04 1.48 1.56 1.88 1.92 1.59 1.40 1.52 1.61 2.05 2.63 2.45 2.22 2.03 2.25 2.38 2.43 2.48 2.38 2.09 1.82 1.74 1.71 1.67 1.60 1.62 1.46 1.30 1.18 1.07 1.04 1.11 1.17 1.16 1.20
3.02 3.93 3.85 3.32 2.97 2.64 2.36 1.99 1.75 1.65 1.33 1.00 0.85 1.09 1.52 1.93 1.72 1.59 1.53 1.44 1.28 1.38 1.41 1.66 2.34 2.43 2.27 2.17 2.38 2.45 2.50 2.67 2.63 2.33 2.12 1.90 1.72 1.66 1.62 1.64 1.48 1.37 1.28 1.21 1.16 1.18 1.20 1.17 1.22
3.35 3.43 3.68 3.25 2.92 2.72 2.57 1.89 1.65 1.60 1.22 0.98 0.93 1.19 1.98 2.38 1.99 1.71 1.51 1.57 1.50 1.46 1.37 1.37 2.02 2.28 2.27 2.31 2.36 2.35 2.37 2.44 2.49 2.26 2.06 1.86 1.70 1.63 1.70 1.72 1.53 1.43 1.30 1.24 1.24 1.30 1.35 1.31 1.29
3.28 3.35 3.36 2.79 2.83 3.03 2.64 1.85 1.69 1.57 1.45 1.16 0.87 1.33 2.10 2.53 2.11 1.72 1.58 1.58 1.67 1.59 1.53 1.42 1.56 1.87 2.22 2.27 2.14 2.15 2.13 2.15 2.28 2.12 1.97 1.77 1.66 1.57 1.62 1.66 1.55 1.48 1.43 1.38 1.36 1.47 1.47 1.34 1.31
2.44 2.73 2.77 2.70 2.85 3.05 2.27 1.71 1.39 1.35 1.33 0.99 0.82 1.32 1.95 2.00 1.77 1.69 1.76 1.88 2.00 1.78 1.64 1.46 1.40 1.49 1.58 1.80 1.95 2.10 2.16 2.15 2.23 2.04 1.82 1.67 1.57 1.45 1.52 1.49 1.47 1.55 1.58 1.63 1.62 1.64 1.58 1.50 1.38
2.21 2.87 3.15 3.11 2.85 2.43 1.60 1.45 1.24 1.04 1.11 0.98 0.79 0.87 1.13 1.20 1.35 1.58 1.68 1.76 1.83 1.56 1.46 1.50 1.51 1.53 1.58 1.52 1.59 1.90 2.04 2.08 1.97 1.88 1.76 1.58 1.32 1.18 1.28 1.33 1.57 1.66 1.75 1.81 1.83 1.79 1.72 1.55 1.34
2.25 2.99 2.97 2.36 2.07 1.79 1.31 1.23 1.12 1.13 1.19 1.11 0.92 0.91 1.02 1.08 1.31 1.50 1.47 1.49 1.40 1.30 1.25 1.32 1.35 1.47 1.52 1.37 1.59 1.89 1.73 1.64 1.41 1.42 1.29 1.32 1.25 1.17 0.98 1.17 1.57 1.72 1.72 1.70 1.76 1.81 1.60 1.30 0.97
1.78 2.30 2.07 1.82 1.60 1.33 1.17 1.21 1.08 1.12 1.29 1.18 0.99 1.04 1.30 1.32 1.32 1.28 1.21 1.25 1.16 1.10 1.06 1.02 1.08 1.13 1.26 1.42 1.66 1.96 2.02 1.83 1.61 1.37 1.28 1.32 1.23 1.11 1.00 1.01 1.18 1.31 1.33 1.19 1.21 1.23 1.10 1.00 0.92
1.52 1.50 1.49 1.68 1.43 1.34 1.14 1.11 1.15 1.12 1.19 1.06 0.87 0.91 1.12 1.30 1.38 1.27 1.08 1.04 0.90 0.90 1.00 0.83 0.74 0.88 1.05 1.17 1.30 1.58 1.65 1.58 1.46 1.26 1.17 1.28 1.30 1.18 1.13 1.11 1.15 1.17 1.15 1.17 1.15 1.19 1.16 0.97 0.88
1.86 1.59 1.36 1.34 1.34 1.39 1.17 1.09 1.09 1.10 1.01 0.89 0.83 0.98 1.10 1.13 1.18 1.11 1.00 0.95 0.91 0.92 0.96 0.87 0.75 0.73 0.81 0.86 0.97 1.12 1.28 1.36 1.38 1.34 1.16 1.17 1.30 1.26 1.22 1.16 1.21 1.09 1.01 1.08 1.14 1.17 1.19 1.08 0.94
1.73 1.51 1.48 1.47 1.37 1.35 1.34 1.09 1.08 1.30 1.01 0.89 0.95 1.04 1.03 1.00 0.98 1.05 0.99 0.96 0.89 0.87 0.96 0.92 0.81 0.79 0.81 0.77 0.77 0.77 0.92 1.09 1.21 1.25 1.16 1.18 1.28 1.29 1.34 1.27 1.21 1.15 1.06 1.09 1.26 1.22 1.24 1.22 1.15
1.63 1.77 1.68 1.57 1.45 1.41 1.34 1.46 1.36 1.25 1.04 0.99 1.05 1.00 0.96 0.92 0.90 0.98 0.91 0.84 0.82 0.84 0.90 0.95 0.91 0.92 0.92 0.87 0.83 0.69 0.73 0.84 1.01 1.15 1.15 1.22 1.20 1.14 1.21 1.23 1.17 1.15 1.16 1.18 1.23 1.27 1.34 1.26 1.16
1.86 2.06 2.19 1.83 1.54 1.32 1.36 1.85 1.70 1.37 1.11 1.13 1.11 1.01 0.96 0.91 0.86 0.90 0.88 0.86 0.82 0.85 0.91 0.99 0.99 1.03 1.04 1.04 1.01 0.92 0.94 1.03 1.10 1.26 1.25 1.21 1.25 1.21 1.20 1.23 1.22 1.25 1.29 1.28 1.31 1.38 1.37 1.32 1.32
2.02 2.05 1.92 1.77 1.40 1.17 1.22 1.56 1.57 1.40 1.15 1.04 1.02 0.97 0.87 0.78 0.75 0.74 0.71 0.72 0.77 0.80 0.84 0.90 1.00 1.06 1.09 1.13 1.22 1.31 1.33 1.32 1.33 1.40 1.34 1.23 1.24 1.29 1.41 1.44 1.44 1.40 1.42 1.41 1.36 1.39 1.32 1.32 1.34
1.91 1.61 1.41 1.38 1.27 1.12 1.05 1.17 1.20 1.23 1.12 0.94 0.84 0.82 0.83 0.72 0.67 0.62 0.58 0.60 0.68 0.73 0.78 0.85 0.92 1.11 1.23 1.29 1.31 1.46 1.51 1.55 1.61 1.65 1.49 1.37 1.41 1.54 1.72 1.80 1.69 1.65 1.64 1.62 1.57 1.62 1.51 1.40 1.44
1.39 1.35 1.23 1.06 1.02 1.08 0.99 0.98 1.01 1.00 0.99 0.88 0.75 0.63 0.61 0.59 0.56 0.54 0.50 0.53 0.57 0.61 0.66 0.75 0.81 0.97 1.08 1.14 1.29 1.51 1.68 1.84 1.94 2.00 1.87 1.72 1.69 1.85 1.99 1.91 1.99 2.00 1.86 1.86 1.92 1.96 1.92 1.74 1.61
1.23 1.26 1.11 0.96 0.81 0.85 0.88 0.91 0.91 0.84 0.84 0.74 0.63 0.54 0.46 0.40 0.40 0.37 0.34 0.36 0.39 0.39 0.44 0.54 0.66 0.73 0.87 1.05 1.30 1.52 1.82 1.90 1.96 2.05 2.08 1.98 1.92 2.07 2.11 2.18 2.26 2.29 2.29 2.22 2.12 2.23 2.37 2.12 1.89
1.04 1.10 1.00 0.93 0.82 0.75 0.74 0.91 0.85 0.79 0.74 0.65 0.52 0.44 0.35 0.28 0.24 0.20 0.22 0.28 0.33 0.32 0.34 0.43 0.55 0.71 0.95 1.20 1.51 1.79 2.08 2.20 2.25 2.19 2.22 2.23 2.24 2.29 2.33 2.38 2.43 2.44 2.29 2.28 2.39 2.52 2.86 2.68 2.31
1.01 0.74 0.69 0.71 0.89 0.93 0.77 1.07 0.79 0.65 0.64 0.58 0.49 0.45 0.36 0.27 0.22 0.20 0.21 0.23 0.26 0.30 0.37 0.49 0.69 0.91 1.19 1.54 1.90 2.17 2.43 2.56 2.40 2.36 2.37 2.33 2.25 2.27 2.39 2.38 2.36 2.32 2.25 2.31 2.38 2.43 2.85 3.07 2.78
0.70 0.58 0.69 0.74 0.79 0.75 0.58 0.76 0.69 0.54 0.60 0.53 0.44 0.43 0.42 0.34 0.27 0.25 0.26 0.29 0.36 0.44 0.53 0.71 0.99 1.30 1.58 1.83 2.03 2.27 2.40 2.41 2.37 2.34 2.34 2.25 2.20 2.17 2.19 2.18 2.27 2.27 2.29 2.35 2.51 2.64 2.91 2.94 2.94
0.51 0.62 0.76 0.79 0.85 0.91 0.51 0.60 0.70 0.54 0.50 0.49 0.43 0.39 0.35 0.33 0.34 0.35 0.37 0.46 0.55 0.63 0.79 0.99 1.17 1.48 1.67 1.82 1.93 2.08 2.23 2.28 2.27 2.28 2.31 2.30 2.26 2.15 2.06 2.00 2.07 2.20 2.33 2.37 2.45 2.61 2.86 2.98 3.06
0.52 0.90 1.25 1.27 1.20 0.91 0.44 0.63 0.73 0.54 0.41 0.37 0.39 0.37 0.33 0.38 0.45 0.45 0.57 0.71 0.79 0.85 0.97 1.15 1.22 1.42 1.53 1.59 1.70 1.84 1.90 1.94 1.96 1.96 1.97 1.89 1.85 1.83 1.88 1.93 2.01 2.13 2.22 2.29 2.41 2.54 2.59 2.71 2.96
0.47 0.74 1.26 1.37 1.17 0.85 0.59 0.86 0.78 0.52 0.41 0.39 0.39 0.36 0.39 0.52 0.63 0.72 0.87 0.96 1.04 1.08 1.06 1.12 1.26 1.29 1.28 1.35 1.36 1.47 1.56 1.61 1.66 1.63 1.62 1.66 1.70 1.72 1.67 1.71 1.77 1.99 2.17 2.25 2.34 2.35 2.33 2.39 2.58
0.49 0.53 0.60 0.87 0.83 0.87 0.82 0.98 0.90 0.53 0.45 0.44 0.44 0.42 0.49 0.66 0.87 1.11 1.30 1.39 1.48 1.43 1.27 1.13 1.14 1.12 1.11 1.21 1.28 1.32 1.38 1.42 1.44 1.44 1.36 1.47 1.50 1.50 1.46 1.50 1.52 1.64 1.85 2.09 2.23 2.20 2.12 2.08 2.23
0.40 0.53 0.68 1.02 1.20 1.18 1.04 1.14 1.13 0.76 0.60 0.53 0.56 0.64 0.77 0.98 1.30 1.60 1.86 2.02 2.01 1.80 1.55 1.31 1.13 1.05 1.02 1.08 1.17 1.25 1.28 1.29 1.25 1.27 1.19 1.23 1.32 1.31 1.26 1.26 1.37 1.53 1.64 1.81 2.02 2.10 2.04 2.04 2.12
0.44 0.61 0.77 1.00 1.04 1.31 1.45 1.42 1.16 1.01 0.86 0.80 0.89 1.09 1.27 1.52 1.74 1.94 2.12 2.24 2.05 1.85 1.57 1.30 1.13 1.11 1.13 1.16 1.19 1.21 1.17 1.15 1.13 1.08 1.03 1.07 1.15 1.14 1.14 1.29 1.36 1.44 1.53 1.71 1.95 2.12 2.12 2.05 2.05
0.56 0.81 1.04 1.43 1.32 1.22 1.48 1.52 1.10 0.98 0.98 1.01 1.12 1.22 1.36 1.49 1.51 1.63 1.73 1.74 1.79 1.73 1.53 1.33 1.20 1.19 1.24 1.26 1.29 1.24 1.17 1.11 1.09 1.04 0.95 0.94 0.91 0.88 1.00 1.14 1.19 1.25 1.28 1.47 1.75 1.95 2.00 1.97 1.87